When you browse on this site, cookies collect data to enhance your experience and personalize the content and advertising you see.
Visit our Privacy Policy to learn more. By continuing to use the site, you agree to this use of cookies and data.

Stündliche Wetter Newcastle

Heute, 12 August, Mittwoch

Zeit Temperatur Niederschläge Wind Luftdruck Luftfeuchtigkeit
00:00 +21°C° 0.4 mm 3 m/S 753 mmHg 92%
01:00 +20°C° 0.4 mm 3 m/S 753 mmHg 94%
02:00 +20°C° 0.4 mm 3 m/S 752 mmHg 96%
03:00 +20°C° 0.1 mm 3 m/S 753 mmHg 96%
04:00 +20°C° 0.1 mm 3 m/S 753 mmHg 96%
05:00 +20°C° 0.1 mm 3 m/S 753 mmHg 96%
06:00 +21°C° 0.1 mm 4 m/S 753 mmHg 95%
07:00 +21°C° 0.1 mm 4 m/S 753 mmHg 93%
08:00 +22°C° 0.1 mm 4 m/S 753 mmHg 92%
09:00 +23°C° 0.1 mm 4 m/S 753 mmHg 87%
10:00 +25°C° 0.1 mm 4 m/S 753 mmHg 83%
11:00 +26°C° 0.1 mm 4 m/S 753 mmHg 78%
12:00 +27°C° 0.6 mm 4 m/S 753 mmHg 76%
13:00 +28°C° 0.6 mm 4 m/S 753 mmHg 75%
14:00 +29°C° 0.6 mm 4 m/S 753 mmHg 73%
15:00 +29°C° 0.5 mm 4 m/S 753 mmHg 74%
16:00 +29°C° 0.5 mm 3 m/S 753 mmHg 75%
17:00 +29°C° 0.5 mm 2 m/S 753 mmHg 76%
18:00 +27°C° 0.2 mm 2 m/S 754 mmHg 80%
19:00 +25°C° 0.2 mm 2 m/S 754 mmHg 85%
20:00 +24°C° 0.2 mm 2 m/S 754 mmHg 89%
21:00 +21°C° 0 mm 2 m/S 755 mmHg 87%
22:00 +20°C° 0 mm 2 m/S 755 mmHg 84%
23:00 +19°C° 0 mm 2 m/S 755 mmHg 81%

Morgen, 13 August, Donnerstag

Zeit Temperatur Niederschläge Wind Luftdruck Luftfeuchtigkeit
00:00 +18°C° 0 mm 2 m/S 755 mmHg 80%
01:00 +18°C° 0 mm 2 m/S 755 mmHg 80%
02:00 +17°C° 0 mm 2 m/S 755 mmHg 79%
03:00 +18°C° 0 mm 1 m/S 756 mmHg 78%
04:00 +18°C° 0 mm 1 m/S 756 mmHg 78%
05:00 +18°C° 0 mm 1 m/S 756 mmHg 77%
06:00 +20°C° 0 mm 1 m/S 756 mmHg 72%
07:00 +22°C° 0 mm 1 m/S 756 mmHg 68%
08:00 +24°C° 0 mm 1 m/S 757 mmHg 63%
09:00 +26°C° 0 mm 1 m/S 757 mmHg 55%
10:00 +28°C° 0 mm 1 m/S 757 mmHg 48%
11:00 +30°C° 0 mm 2 m/S 757 mmHg 41%
12:00 +30°C° 0 mm 1 m/S 757 mmHg 43%
13:00 +30°C° 0 mm 1 m/S 756 mmHg 44%
14:00 +29°C° 0 mm 1 m/S 756 mmHg 46%
15:00 +28°C° 0 mm 1 m/S 756 mmHg 52%
16:00 +27°C° 0 mm 1 m/S 756 mmHg 57%
17:00 +26°C° 0 mm 1 m/S 756 mmHg 62%
18:00 +25°C° 0 mm 1 m/S 756 mmHg 66%
19:00 +23°C° 0 mm 1 m/S 757 mmHg 70%
20:00 +22°C° 0 mm 1 m/S 757 mmHg 74%
21:00 +21°C° 0 mm 1 m/S 757 mmHg 75%
22:00 +19°C° 0 mm 2 m/S 757 mmHg 76%
23:00 +18°C° 0 mm 2 m/S 757 mmHg 77%

übermorgen, 14 August, Freitag

Zeit Temperatur Niederschläge Wind Luftdruck Luftfeuchtigkeit
00:00 +17°C° 0 mm 2 m/S 757 mmHg 77%
01:00 +16°C° 0 mm 2 m/S 757 mmHg 77%
02:00 +15°C° 0 mm 2 m/S 757 mmHg 77%
03:00 +15°C° 0 mm 2 m/S 757 mmHg 78%
04:00 +15°C° 0 mm 2 m/S 757 mmHg 79%
05:00 +14°C° 0 mm 2 m/S 757 mmHg 81%
06:00 +16°C° 0 mm 2 m/S 757 mmHg 77%
07:00 +17°C° 0 mm 2 m/S 758 mmHg 73%
08:00 +19°C° 0 mm 3 m/S 758 mmHg 68%
09:00 +21°C° 0 mm 3 m/S 758 mmHg 64%
10:00 +22°C° 0 mm 3 m/S 758 mmHg 60%
11:00 +25°C° 0 mm 3 m/S 758 mmHg 56%
12:00 +25°C° 0.1 mm 3 m/S 758 mmHg 54%
13:00 +26°C° 0.1 mm 3 m/S 758 mmHg 51%
14:00 +26°C° 0.1 mm 3 m/S 758 mmHg 49%
15:00 +25°C° 0.1 mm 4 m/S 758 mmHg 55%
16:00 +23°C° 0.1 mm 4 m/S 758 mmHg 61%
17:00 +22°C° 0.1 mm 4 m/S 759 mmHg 67%
18:00 +20°C° 0 mm 3 m/S 759 mmHg 75%
19:00 +18°C° 0 mm 3 m/S 759 mmHg 82%
20:00 +16°C° 0 mm 2 m/S 760 mmHg 89%
21:00 +15°C° 0 mm 2 m/S 760 mmHg 92%
22:00 +15°C° 0 mm 2 m/S 760 mmHg 94%
23:00 +14°C° 0 mm 2 m/S 760 mmHg 97%

15 August, Samstag

Zeit Temperatur Niederschläge Wind Luftdruck Luftfeuchtigkeit
00:00 +14°C° 0 mm 2 m/S 760 mmHg 96%
01:00 +14°C° 0 mm 2 m/S 760 mmHg 95%
02:00 +14°C° 0 mm 2 m/S 760 mmHg 95%
03:00 +14°C° 0 mm 2 m/S 760 mmHg 93%
04:00 +13°C° 0 mm 3 m/S 760 mmHg 91%
05:00 +14°C° 0 mm 3 m/S 760 mmHg 90%
06:00 +14°C° 0 mm 3 m/S 761 mmHg 85%
07:00 +16°C° 0 mm 3 m/S 761 mmHg 80%
08:00 +17°C° 0 mm 3 m/S 761 mmHg 75%
09:00 +19°C° 0 mm 4 m/S 761 mmHg 67%
10:00 +20°C° 0 mm 4 m/S 761 mmHg 59%
11:00 +22°C° 0 mm 4 m/S 761 mmHg 51%
12:00 +22°C° 0 mm 4 m/S 761 mmHg 50%
13:00 +23°C° 0 mm 4 m/S 760 mmHg 50%
14:00 +23°C° 0 mm 4 m/S 760 mmHg 49%
15:00 +22°C° 0 mm 4 m/S 760 mmHg 53%
16:00 +22°C° 0 mm 4 m/S 760 mmHg 56%
17:00 +21°C° 0 mm 3 m/S 760 mmHg 60%
18:00 +19°C° 0 mm 3 m/S 760 mmHg 71%
19:00 +17°C° 0 mm 2 m/S 760 mmHg 83%
20:00 +15°C° 0 mm 2 m/S 761 mmHg 94%
21:00 +14°C° 0 mm 1 m/S 761 mmHg 95%
22:00 +14°C° 0 mm 1 m/S 761 mmHg 96%
23:00 +13°C° 0 mm 1 m/S 761 mmHg 97%

16 August, Sonntag

Zeit Temperatur Niederschläge Wind Luftdruck Luftfeuchtigkeit
00:00 +13°C° 0 mm 1 m/S 761 mmHg 97%
01:00 +12°C° 0 mm 1 m/S 761 mmHg 97%
02:00 +12°C° 0 mm 1 m/S 761 mmHg 97%
03:00 +12°C° 0 mm 1 m/S 761 mmHg 97%
04:00 +11°C° 0 mm 1 m/S 761 mmHg 97%
05:00 +11°C° 0 mm 1 m/S 760 mmHg 96%
06:00 +13°C° 0 mm 1 m/S 760 mmHg 91%
07:00 +15°C° 0 mm 1 m/S 760 mmHg 85%
08:00 +18°C° 0 mm 1 m/S 760 mmHg 80%
09:00 +20°C° 0 mm 1 m/S 760 mmHg 71%
10:00 +20°C° 0 mm 0 m/S 760 mmHg 63%
11:00 +22°C° 0 mm 0 m/S 759 mmHg 54%
12:00 +25°C° 0 mm 1 m/S 759 mmHg 52%
13:00 +25°C° 0 mm 1 m/S 759 mmHg 50%
14:00 +25°C° 0 mm 2 m/S 758 mmHg 49%
15:00 +25°C° 0 mm 2 m/S 758 mmHg 51%
16:00 +25°C° 0 mm 2 m/S 757 mmHg 54%
17:00 +24°C° 0 mm 2 m/S 757 mmHg 57%
18:00 +21°C° 0 mm 2 m/S 757 mmHg 66%
19:00 +19°C° 0 mm 2 m/S 757 mmHg 76%
20:00 +17°C° 0 mm 2 m/S 757 mmHg 86%
21:00 +16°C° 0 mm 2 m/S 757 mmHg 89%
22:00 +16°C° 0 mm 1 m/S 757 mmHg 93%
23:00 +15°C° 0 mm 1 m/S 757 mmHg 96%

17 August, Montag

Zeit Temperatur Niederschläge Wind Luftdruck Luftfeuchtigkeit
00:00 +15°C° 0 mm 1 m/S 756 mmHg 96%
01:00 +15°C° 0 mm 1 m/S 756 mmHg 97%
02:00 +14°C° 0 mm 1 m/S 756 mmHg 97%
03:00 +15°C° 0 mm 2 m/S 756 mmHg 97%
04:00 +15°C° 0 mm 2 m/S 756 mmHg 96%
05:00 +15°C° 0 mm 2 m/S 755 mmHg 96%
06:00 +16°C° 0 mm 3 m/S 755 mmHg 91%
07:00 +17°C° 0 mm 3 m/S 755 mmHg 86%
08:00 +18°C° 0 mm 3 m/S 755 mmHg 81%
09:00 +20°C° 0 mm 4 m/S 755 mmHg 73%
10:00 +22°C° 0 mm 4 m/S 754 mmHg 65%
11:00 +23°C° 0 mm 4 m/S 754 mmHg 57%
12:00 +25°C° 0 mm 4 m/S 754 mmHg 53%
13:00 +26°C° 0 mm 4 m/S 753 mmHg 50%
14:00 +27°C° 0 mm 4 m/S 753 mmHg 47%
15:00 +27°C° 0 mm 4 m/S 753 mmHg 49%
16:00 +26°C° 0 mm 4 m/S 752 mmHg 51%
17:00 +26°C° 0 mm 4 m/S 752 mmHg 54%
18:00 +24°C° 0 mm 3 m/S 752 mmHg 61%
19:00 +21°C° 0 mm 3 m/S 752 mmHg 68%
20:00 +20°C° 0 mm 3 m/S 752 mmHg 75%
21:00 +20°C° 0 mm 3 m/S 752 mmHg 75%
22:00 +20°C° 0 mm 3 m/S 752 mmHg 75%
23:00 +19°C° 0 mm 3 m/S 752 mmHg 75%
Mehr zeigen